Regional Weather Roundup
Issued by NWS

Home | Current Version | Previous Version | Text Only | Print | Product List | Glossary Off
Versions: 1 2 3 4 5 6 7 8 9 10 11 12 13 14 15 16 17 18 19 20 21 22 23 24 25 26 27

000
ASUS45 KBOU 201407
RWRCO

WEATHER ROUNDUP FOR COLORADO
NATIONAL WEATHER SERVICE DENVER/BOULDER CO
800 AM MDT SUN AUG 20 2017

NOTE: "FAIR" INDICATES FEW OR NO CLOUDS BELOW 12000 FEET WITH NO
SIGNIFICANT WEATHER AND/OR OBSTRUCTIONS TO VISIBILITY.

COZ001>005-013-030-031-201500-
...NORTHWEST COLORADO...

CITY           SKY/WX    TMP DP  RH WIND       PRES   REMARKS
CRAIG          FAIR      53  38  56 CALM      30.22R
HAYDEN         FAIR      57  37  47 E9        30.25R
MEEKER         FAIR      54  38  54 CALM      30.24R
RABBIT EARS PA FAIR      54  32  43 CALM      30.51S
STEAMBOAT SPGS FAIR      50  38  62 CALM      30.27R
WALDEN         FAIR      48  34  57 CALM      30.36S
$$

COZ006>008-011-201500-
...WEST CENTRAL VALLEYS...

CITY           SKY/WX    TMP DP  RH WIND       PRES   REMARKS
GRAND JUNCTION FAIR      67  40  37 SE13      30.11R
MONTROSE       FAIR      60  41  49 SW5       30.20R
EAGLE          FAIR      54  36  50 CALM      30.32R
RIFLE          FAIR      57  41  55 CALM      30.19R
DELTA          FAIR      63  38  40 E3        30.17R
NUCLA          FAIR      61  32  33 SE5       30.22R
$$

COZ017>023-064>068-201500-
...SOUTHWEST COLORADO...

CITY           SKY/WX    TMP DP  RH WIND       PRES   REMARKS
DURANGO        FAIR      57  39  51 CALM      30.24R
CORTEZ         FAIR      60  42  51 CALM      30.17R
PAGOSA SPRINGS FAIR      56  42  58 CALM      30.33R
TELLURIDE      FAIR      55  33  42 SE6       30.43S
WOLF CREEK PAS NOT AVBL
$$

COZ009-010-012-014-032>034-037-058>063-201500-
...CENTRAL COLORADO...

CITY           SKY/WX    TMP DP  RH WIND       PRES   REMARKS
ASPEN          FAIR      55  35  47 S3        30.32R
BUENA VISTA    FAIR      53  33  48 NW10      30.36S
COPPER MTN     FAIR      54  27  35 CALM      30.63R
BERTHOUD PASS  FAIR      45  39  81 W10       30.66R
COTTONWOOD PAS FAIR      59  28  31 E3        30.47S
GUNNISON       FAIR      43  36  76 CALM      30.38S
KREMMLING      FAIR      52  39  62 CALM      30.36S
LEADVILLE      FAIR      49  33  54 CALM      30.47R
MONARCH PASS   FAIR      50  27  40 SW8       30.73R
SALIDA         FAIR      56  36  46 NW7       30.41R
SUNLIGHT       FAIR      52  28  40 SW3       30.55S
WILKERSON PASS FAIR      55  27  33 N5        30.60R
$$

COZ069>075-201500-
...SAN LUIS VALLEY/SANGRE DE CRISTO MOUNTAINS...

CITY           SKY/WX    TMP DP  RH WIND       PRES   REMARKS
ALAMOSA        FAIR      54  42  64 N3        30.32R
DEL NORTE      FAIR      57  36  46 W9        30.36S
LA VETA PASS   NOT AVBL
SAGUACHE       FAIR      54  34  47 NW10      30.36R
$$

COZ035-036-038>040-201500-
...NORTHERN COLORADO FRONT RANGE...

CITY           SKY/WX    TMP DP  RH WIND       PRES   REMARKS
DENVER INTL AP PTSUNNY   71  41  33 SW9       30.10R
DMNS CITY PARK   N/A     68  42  39 SW2G10    30.11S
AURORA         PTSUNNY   67  42  41 SW7       30.13R
FRONT RANGE AP MOSUNNY   72  43  35 SW9       30.12R
ERIE MUNI ARPT FAIR      67  46  45 CALM      30.14R
BOULDER MUN AP FAIR      70  45  40 CALM      30.09R
CENTENNIAL     FAIR      65  45  48 E3        30.14R
BROOMFIELD     PTSUNNY   68  41  37 CALM      30.12R
FORT COLLINS   FAIR      65  48  54 N5        30.08R
LONGMONT       FAIR      68  49  50 CALM      30.10R
$$

COZ041-046-047-076>085-087-088-201500-
...PIKES PEAK/PALMER DIVIDE AND SOUTHERN FOOTHILLS...

CITY           SKY/WX    TMP DP  RH WIND       PRES   REMARKS
COLO. SPRINGS  PTSUNNY   74  43  32 NW8       30.16R
A. F. ACADEMY  FAIR      62  45  52 CALM      30.19R
SCHRIEVER AFB  FAIR      74  39  27 N8        30.16R
CHEYENNE MTN   FAIR      73  37  26 N12       30.16R
ELLICOTT       NOT AVBL
FALCON         FAIR      71  37  29 NW7       30.22R
FORT CARSON    FAIR      69  45  42 N9        30.12R
LIMON          FAIR      66  51  58 NW8       30.09R
MONUMENT HILL  FAIR      64  43  45 W7        30.24S
CANON CITY     SUNNY     73  41  31 W17G24    30.11R
WALSENBURG     FAIR      77  39  25 W16G24    30.14S
TRINIDAD       FAIR      64  46  52 W9        30.13R
$$

COZ042>045-048>051-090-091-201500-
...NORTHEAST COLORADO...

CITY           SKY/WX    TMP DP  RH WIND       PRES   REMARKS
GREELEY ARPT   FAIR      61  48  62 W3        30.07R
AKRON          FAIR      65  45  48 W10       30.05R
BURLINGTON     FAIR      71  55  56 W8        30.00R
WRAY           NOT AVBL
YUMA           NOT AVBL
STERLING       FAIR      61  52  72 CALM      30.01R
HOLYOKE        FAIR      64  55  72 W6        29.98R
FORT MORGAN    FAIR      61  46  58 W7        30.04R
$$

COZ086-089-092>099-201500-
...SOUTHEAST COLORADO...

CITY           SKY/WX    TMP DP  RH WIND       PRES   REMARKS
PUEBLO         FAIR      69  49  48 NW3       30.05R
LA JUNTA       FAIR      63  54  72 W5        30.01R
LAMAR          FAIR      62  57  83 CALM      29.97R
SPRINGFIELD      N/A     72  55  55 SW12      30.03R
$$




USA.gov is the U.S. government's official web portal to all federal, state and local government web resources and services.